STARLINK-32369, 60917

Orbit data source: Space-Track

STARLINK-32369, 60917 is a payload satellite owned by SpaceX/Seattle (US) in LEO that was launched on Sat, 31 Aug 2024 UTC via an FALCON 9 launch vehicle from the Air Force Eastern Test Range (AFETR). Payload-class satellites include a variety of spacecraft equipped with specific instruments for various scientific and technological missions. These include communications satellites like Starlink; space stations such as the ISS; scientific satellites like the Hubble; Earth observation satellites from companies like Planet Labs, Umbra, and HawkEye 360; GPS; miniature CubeSats for education and research; and military/defense satellites.

Loading next visibility...
Identifier
60917, 2024-154Q
Orbit
LEO
Country
Flag of USUS
Related business
Manufacturer
SpaceX/Seattle
Mission
Operational Commercial Communications
Bus & Motor
STARLINK V2M, Unknown motor
Mass
730 kg wet, ~700 kg dry
Launch date (UTC)
2024-08-31 (2 years ago)
Launch vehicle
FALCON 9
Launch site
Air Force Eastern Test Range (AFETR)
Object type
Payload
Rocket body
Debris
Shape & HBR
Box + 2 Pan, 17.7 m
Radar Cross Section
33.884 m², Large (>1 m²)

Expand to show TLE details & history
Last TLE update: 1 day ago

TLE from 1 day ago
0 STARLINK-32369
1 60917U 24154Q   26175.17776784  .00000421  00000-0  25321-4 0  9991
2 60917  53.1600 148.8726 0001466  86.0394 274.0775 15.31701410102641
Epoch: 2026-06-24T04:15Z
TLE epoch observation values (Epoch: 2026-06-24T04:15:59.141Z)
Latitude
-0.00002°
Longitude
172.53745°
Altitude
471.565 km
Speed
7.632 km/s
True Right ascension
09h 55m 29s
True Declination
0° 00' 00"
Sunlit
Object was in daylight at epoch
Visualization orbit readout
Latitude
Unknown
Longitude
Unknown
Altitude
Unknown
Speed
Unknown
Apparent Right ascension
Unknown
Apparent Declination
Unknown
Sunlit
N/A
Visualization observer readout
Local Sidereal Time
18:28:25
Azimuth
Unknown
Elevation
Unknown
Doppler factor
Unknown
Orbital elements
Apogee altitude
471.996 km
Perigee altitude
469.988 km
Semi-major axis
6,849.129 km
Eccentricity
0.00015
Inclination
53.16°
RAAN
148.8726°
Arg. of periapsis
86.0394°
True anomaly
274.06074°
Mean anomaly
274.0775°
Eccentric anomaly
274.06912°
Mean motion
3.82904 °/min
Orbital period
94.02 mins
BSTAR
0.000025321
Loading maneuver chart data...
Computing Atmospheric mass density...
Loading historical data...
Loading historical data...
Loading historical data...
Loading historical data...
Loading historical data...
Loading historical data...
Loading historical data...

Documentation

Showing up to 5 results
|